Regional Weather Roundup
Issued by NWS Charleston, WV

Home | Current Version | Previous Version | Graphics & Text | Print | Product List | Glossary On
Versions: 1 2 3 4 5 6 7 8 9 10 11 12 13 14 15 16 17 18 19 20 21 22 23 24 25 26 27 28 29 30 31 32 33 34 35 36 37 38 39 40 41 42 43 44 45 46 47 48 49 50
000
ASUS41 KRLX 281210
RWRRLX
West Virginia Regional Weather Roundup
National Weather Service Charleston WV
700 AM EST SAT FEB 28 2015

Note: "fair" indicates few or no clouds below 12,000 feet with no
significant weather and/or obstructions to visibility.

WVZ003-281300-
Northern Panhandle of West Virginia

CITY           SKY/WX    TMP DP  RH WIND       PRES   REMARKS
WHEELING       CLEAR      4  -5  66 NE3       30.69S
$$

WVZ009-281300-
Northwest West Virginia

CITY           SKY/WX    TMP DP  RH WIND       PRES   REMARKS
PARKERSBURG    PTCLDY     6   2  83 CALM      30.74R
$$

WVZ006-281300-
Western West Virginia

CITY           SKY/WX    TMP DP  RH WIND       PRES   REMARKS
HUNTINGTON     MOCLDY    14   3  61 NE6       30.69S WCI   5
$$

WVZ015-281300-
West Central West Virginia

CITY           SKY/WX    TMP DP  RH WIND       PRES   REMARKS
CHARLESTON     MOCLDY    15   5  64 CALM      30.69R
$$

WVZ022-031-281300-
North Central West Virginia

CITY           SKY/WX    TMP DP  RH WIND       PRES   REMARKS
CLARKSBURG     PTCLDY     8   1  73 CALM      30.68R
MORGANTOWN     PTCLDY     5  -4  66 NE3       30.69S
$$

WVZ025-035-042-045-281300-
Southern West Virginia

CITY           SKY/WX    TMP DP  RH WIND       PRES   REMARKS
BECKLEY        CLOUDY     7   0  73 CALM      30.54R
LOGAN          CLOUDY    16   7  67 CALM      30.58S
BLUEFIELD      MOCLDY    13   4  67 VRB7      30.51R WCI   3
LEWISBURG      PTCLDY     5  -1  77 CALM      30.59R
$$

WVZ047-281300-
Northern Mountains of West Virginia

CITY           SKY/WX    TMP DP  RH WIND       PRES   REMARKS
ELKINS         PTCLDY    -5  -9  83 CALM      30.62S
$$

WVZ052-281300-
Eastern Panhandle of West Virginia

CITY           SKY/WX    TMP DP  RH WIND       PRES   REMARKS
MARTINSBURG    CLEAR     12   0  58 NE3       30.77R
PETERSBURG     PTCLDY     9   3  77 CALM      30.74S
$$


USA.gov is the U.S. government's official web portal to all federal, state and local government web resources and services.